Location: Bouchavesnes-Bergen
(49.9859°N, 2.9203°E)
Time: 03:50:46
(UTC+00:00)

IDEFIX/ARIANE 42P - Pass Details

Date: 25 September 2022
Orbit: 784 x 803 km, 98.5° (Epoch: 06 December)

Event Time Altitude Azimuth Distance (km) Brightness Sun altitude
Rises 03:26:49 0° 6° (N) 3,328 6.2 -21.4°
Reaches altitude 10° 03:29:30 10° 354° (N) 2,394 5.3 -21.0°
Maximum altitude 03:33:44 25° 301° (WNW) 1,574 3.8 -20.4°
Enters shadow 03:33:58 25° 297° (WNW) 1,577 3.8 -20.3°
